Time,TemperatureF,DewpointF,PressureIn,WindDirection,WindDirectionDegrees,WindSpeedMPH,WindSpeedGustMPH,Humidity,HourlyPrecipIn,Conditions,Clouds,dailyrainin,SoftwareType,DateUTC
2013-07-12 00:01:00,64.3,56.2,29.95,NNE,24,4.0,4.0,75,0.00,CLR,,0.00,WeatherDisplay:10.37,2013-07-12 04:01:00,
2013-07-12 00:02:00,64.2,56.1,29.95,NNE,24,3.5,3.5,75,0.00,CLR,,0.00,WeatherDisplay:10.37,2013-07-12 04:02:00,
2013-07-12 00:03:00,64.1,56.0,29.95,NNE,24,3.5,3.5,75,0.00,CLR,,0.00,WeatherDisplay:10.37,2013-07-12 04:03:00,
2013-07-12 00:08:00,64.0,56.3,29.95,NNE,24,3.5,3.5,76,0.00,CLR,,0.00,WeatherDisplay:10.37,2013-07-12 04:08:00,
2013-07-12 00:13:00,63.7,56.0,29.95,NNE,24,3.5,3.5,76,0.00,CLR,,0.00,WeatherDisplay:10.37,2013-07-12 04:13:00,
2013-07-12 00:18:00,63.6,55.9,29.95,NNE,24,0.0,0.0,76,0.00,CLR,,0.00,WeatherDisplay:10.37,2013-07-12 04:18:00,
2013-07-12 00:23:00,63.6,55.9,29.95,NNE,24,3.0,3.0,76,0.00,CLR,,0.00,WeatherDisplay:10.37,2013-07-12 04:23:00,
2013-07-12 00:28:00,63.5,55.8,29.95,NNE,24,1.2,1.2,76,0.00,CLR,,0.00,WeatherDisplay:10.37,2013-07-12 04:28:00,
2013-07-12 00:33:00,63.4,55.7,29.95,NNE,24,3.5,0.0,76,0.00,CLR,,0.00,WeatherDisplay:10.37,2013-07-12 04:33:00,
2013-07-12 00:38:00,63.3,55.6,29.95,NNE,24,1.2,0.0,76,0.00,CLR,,0.00,WeatherDisplay:10.37,2013-07-12 04:38:00,
2013-07-12 00:43:00,63.2,55.9,29.95,NNE,24,3.5,3.5,77,0.00,CLR,,0.00,WeatherDisplay:10.37,2013-07-12 04:43:00,
2013-07-12 00:48:00,63.0,56.0,29.95,NNE,24,0.0,0.0,78,0.00,CLR,,0.00,WeatherDisplay:10.37,2013-07-12 04:48:00,
2013-07-12 00:53:00,62.7,55.4,29.95,NNE,24,1.0,1.0,77,0.00,CLR,,0.00,WeatherDisplay:10.37,2013-07-12 04:53:00,
2013-07-12 00:58:00,62.8,55.5,29.95,NNE,24,0.0,0.0,77,0.00,CLR,,0.00,WeatherDisplay:10.37,2013-07-12 04:58:00,
2013-07-12 01:03:00,62.8,55.5,29.95,NNE,24,1.2,0.0,77,0.00,CLR,,0.00,WeatherDisplay:10.37,2013-07-12 05:03:00,
2013-07-12 01:08:00,62.7,55.4,29.95,NNE,24,1.2,1.2,77,0.00,CLR,,0.00,WeatherDisplay:10.37,2013-07-12 05:08:00,
2013-07-12 01:13:00,62.7,55.4,29.95,NNE,24,2.3,2.3,77,0.00,CLR,,0.00,WeatherDisplay:10.37,2013-07-12 05:13:00,
2013-07-12 01:18:00,62.6,55.3,29.95,NNE,24,3.5,3.5,77,0.00,CLR,,0.00,WeatherDisplay:10.37,2013-07-12 05:18:00,
2013-07-12 01:23:00,62.5,55.2,29.95,NNE,24,1.2,1.2,77,0.00,CLR,,0.00,WeatherDisplay:10.37,2013-07-12 05:23:00,
2013-07-12 01:28:00,62.4,55.1,29.95,NNE,24,0.0,0.0,77,0.00,CLR,,0.00,WeatherDisplay:10.37,2013-07-12 05:28:00,
2013-07-12 01:33:00,62.2,54.9,29.95,NNE,24,2.3,2.3,77,0.00,CLR,,0.00,WeatherDisplay:10.37,2013-07-12 05:33:00,
2013-07-12 01:38:00,62.1,54.8,29.95,NNE,24,0.0,0.0,77,0.00,CLR,,0.00,WeatherDisplay:10.37,2013-07-12 05:38:00,
2013-07-12 01:43:00,61.8,54.9,29.95,NNE,24,0.0,0.0,78,0.00,CLR,,0.00,WeatherDisplay:10.37,2013-07-12 05:43:00,
2013-07-12 01:48:00,61.7,54.8,29.96,NNE,24,2.3,2.3,78,0.00,CLR,,0.00,WeatherDisplay:10.37,2013-07-12 05:48:00,
2013-07-12 01:53:00,61.5,54.6,29.95,NNE,24,1.2,1.2,78,0.00,CLR,,0.00,WeatherDisplay:10.37,2013-07-12 05:53:00,
2013-07-12 01:58:00,61.4,54.5,29.95,NNE,24,3.0,3.0,78,0.00,CLR,,0.00,WeatherDisplay:10.37,2013-07-12 05:58:00,
2013-07-12 02:03:00,61.3,54.4,29.96,NNE,24,3.5,3.5,78,0.00,CLR,,0.00,WeatherDisplay:10.37,2013-07-12 06:03:00,
2013-07-12 02:08:00,61.2,54.6,29.95,NNE,24,4.0,4.0,79,0.00,CLR,,0.00,WeatherDisplay:10.37,2013-07-12 06:08:00,
2013-07-12 02:13:00,61.1,54.5,29.95,NNE,24,4.0,4.0,79,0.00,CLR,,0.00,WeatherDisplay:10.37,2013-07-12 06:13:00,
2013-07-12 02:18:00,61.1,54.5,29.95,NNE,24,4.0,4.0,79,0.00,CLR,,0.00,WeatherDisplay:10.37,2013-07-12 06:18:00,
2013-07-12 02:23:00,60.9,54.3,29.95,NNE,24,4.0,4.0,79,0.00,CLR,,0.00,WeatherDisplay:10.37,2013-07-12 06:23:00,
2013-07-12 02:28:00,60.8,54.2,29.95,NNE,24,4.0,4.0,79,0.00,CLR,,0.00,WeatherDisplay:10.37,2013-07-12 06:28:00,
2013-07-12 02:33:00,60.7,54.1,29.95,NNE,24,4.0,4.0,79,0.00,CLR,,0.00,WeatherDisplay:10.37,2013-07-12 06:33:00,
2013-07-12 02:38:00,60.6,54.4,29.95,NNE,24,4.0,4.0,80,0.00,CLR,,0.00,WeatherDisplay:10.37,2013-07-12 06:38:00,
2013-07-12 02:43:00,60.5,54.3,29.96,NNE,24,4.0,4.0,80,0.00,CLR,,0.00,WeatherDisplay:10.37,2013-07-12 06:43:00,
2013-07-12 02:48:00,60.4,54.2,29.95,NNE,24,5.0,5.0,80,0.00,CLR,,0.00,WeatherDisplay:10.37,2013-07-12 06:48:00,
2013-07-12 02:53:00,60.3,54.1,29.95,NNE,17,4.0,4.0,80,0.00,CLR,,0.00,WeatherDisplay:10.37,2013-07-12 06:53:00,
2013-07-12 02:58:00,60.2,54.0,29.95,NNE,17,4.0,4.0,80,0.00,CLR,,0.00,WeatherDisplay:10.37,2013-07-12 06:58:00,
2013-07-12 03:03:00,60.2,54.0,29.95,NNE,13,5.0,5.0,80,0.00,CLR,,0.00,WeatherDisplay:10.37,2013-07-12 07:03:00,
2013-07-12 03:08:00,60.1,53.9,29.95,NNE,14,5.0,5.0,80,0.00,CLR,,0.00,WeatherDisplay:10.37,2013-07-12 07:08:00,
2013-07-12 03:13:00,60.0,54.2,29.95,NNE,19,4.0,4.0,81,0.00,CLR,,0.00,WeatherDisplay:10.37,2013-07-12 07:13:00,
2013-07-12 03:18:00,59.9,54.1,29.95,NNE,17,4.0,4.0,81,0.00,CLR,,0.00,WeatherDisplay:10.37,2013-07-12 07:18:00,
2013-07-12 03:23:00,59.8,54.0,29.95,NNE,17,5.0,5.0,81,0.00,CLR,,0.00,WeatherDisplay:10.37,2013-07-12 07:23:00,
2013-07-12 03:28:00,59.8,54.0,29.95,NNE,16,4.0,4.0,81,0.00,CLR,,0.00,WeatherDisplay:10.37,2013-07-12 07:28:00,
2013-07-12 03:33:00,59.6,53.8,29.95,NNE,17,4.0,4.0,81,0.00,CLR,,0.00,WeatherDisplay:10.37,2013-07-12 07:33:00,
2013-07-12 03:38:00,59.5,53.7,29.95,NNE,18,5.0,5.0,81,0.00,CLR,,0.00,WeatherDisplay:10.37,2013-07-12 07:38:00,
2013-07-12 03:43:00,59.4,53.6,29.95,NNE,17,4.0,4.0,81,0.00,CLR,,0.00,WeatherDisplay:10.37,2013-07-12 07:43:00,
2013-07-12 03:48:00,59.2,53.7,29.95,NNE,18,4.0,4.0,82,0.00,CLR,,0.00,WeatherDisplay:10.37,2013-07-12 07:48:00,
2013-07-12 03:53:00,59.1,53.6,29.95,NNE,19,4.6,4.6,82,0.00,CLR,,0.00,WeatherDisplay:10.37,2013-07-12 07:53:00,
2013-07-12 03:58:00,59.0,53.5,29.95,NNE,21,4.0,4.0,82,0.00,CLR,,0.00,WeatherDisplay:10.37,2013-07-12 07:58:00,
2013-07-12 04:03:00,59.0,53.5,29.95,NNE,24,4.0,4.0,82,0.00,CLR,,0.00,WeatherDisplay:10.37,2013-07-12 08:03:00,
2013-07-12 04:08:00,59.0,53.5,29.95,NNE,18,4.0,4.0,82,0.00,CLR,,0.00,WeatherDisplay:10.37,2013-07-12 08:08:00,
2013-07-12 04:13:00,59.0,53.8,29.95,NNE,19,4.0,4.0,83,0.00,CLR,,0.00,WeatherDisplay:10.37,2013-07-12 08:13:00,
2013-07-12 04:18:00,59.0,53.8,29.95,NNE,19,4.0,4.0,83,0.00,CLR,,0.00,WeatherDisplay:10.37,2013-07-12 08:18:00,
2013-07-12 04:23:00,59.0,53.8,29.95,NNE,19,3.5,3.5,83,0.00,CLR,,0.00,WeatherDisplay:10.37,2013-07-12 08:23:00,
2013-07-12 04:28:00,58.9,53.7,29.96,NNE,19,2.3,2.3,83,0.00,CLR,,0.00,WeatherDisplay:10.37,2013-07-12 08:28:00,
2013-07-12 04:33:00,58.8,53.6,29.96,NNE,19,1.2,0.0,83,0.00,CLR,,0.00,WeatherDisplay:10.37,2013-07-12 08:33:00,
2013-07-12 04:38:00,58.7,53.5,29.96,NNE,19,3.0,3.0,83,0.00,CLR,,0.00,WeatherDisplay:10.37,2013-07-12 08:38:00,
2013-07-12 04:43:00,58.7,53.5,29.96,NNE,19,3.5,3.5,83,0.00,CLR,,0.00,WeatherDisplay:10.37,2013-07-12 08:43:00,
2013-07-12 04:48:00,58.6,53.8,29.96,NNE,19,1.2,0.0,84,0.00,CLR,,0.00,WeatherDisplay:10.37,2013-07-12 08:48:00,
2013-07-12 04:53:00,58.5,53.7,29.96,NNE,19,1.2,0.0,84,0.00,CLR,,0.00,WeatherDisplay:10.37,2013-07-12 08:53:00,
2013-07-12 04:58:00,58.4,53.6,29.96,NNE,19,0.0,0.0,84,0.00,CLR,,0.00,WeatherDisplay:10.37,2013-07-12 08:58:00,
2013-07-12 05:03:00,58.3,53.5,29.96,NNE,19,3.5,3.5,84,0.00,CLR,,0.00,WeatherDisplay:10.37,2013-07-12 09:03:00,
2013-07-12 05:08:00,58.2,53.4,29.96,NNE,19,1.0,0.0,84,0.00,CLR,,0.00,WeatherDisplay:10.37,2013-07-12 09:08:00,
2013-07-12 05:13:00,58.2,53.4,29.96,NNE,19,1.2,0.0,84,0.00,CLR,,0.00,WeatherDisplay:10.37,2013-07-12 09:13:00,
2013-07-12 05:18:00,58.2,53.7,29.97,NNE,19,4.0,4.0,85,0.00,CLR,,0.00,WeatherDisplay:10.37,2013-07-12 09:18:00,
2013-07-12 05:23:00,58.1,53.6,29.97,NNE,19,3.5,3.5,85,0.00,CLR,,0.00,WeatherDisplay:10.37,2013-07-12 09:23:00,
2013-07-12 05:28:00,58.0,53.5,29.97,NNE,19,0.0,0.0,85,0.00,CLR,,0.00,WeatherDisplay:10.37,2013-07-12 09:28:00,
2013-07-12 05:33:00,58.0,53.5,29.97,NNE,19,1.0,0.0,85,0.00,CLR,,0.00,WeatherDisplay:10.37,2013-07-12 09:33:00,
2013-07-12 05:38:00,58.0,53.5,29.97,NNE,19,0.0,0.0,85,0.00,CLR,,0.00,WeatherDisplay:10.37,2013-07-12 09:38:00,
2013-07-12 05:43:00,57.9,53.4,29.97,NNE,19,1.2,1.2,85,0.00,CLR,,0.00,WeatherDisplay:10.37,2013-07-12 09:43:00,
2013-07-12 05:48:00,57.8,53.3,29.97,NNE,19,0.0,0.0,85,0.00,CLR,,0.00,WeatherDisplay:10.37,2013-07-12 09:48:00,
2013-07-12 05:53:00,57.8,53.3,29.97,NNE,19,1.0,0.0,85,0.00,CLR,,0.00,WeatherDisplay:10.37,2013-07-12 09:53:00,
2013-07-12 05:58:00,57.8,53.3,29.97,NNE,19,0.0,0.0,85,0.00,CLR,,0.00,WeatherDisplay:10.37,2013-07-12 09:58:00,
2013-07-12 06:03:00,57.8,53.3,29.97,NNE,19,0.0,0.0,85,0.00,CLR,,0.00,WeatherDisplay:10.37,2013-07-12 10:03:00,
2013-07-12 06:08:00,57.7,53.2,29.97,NNE,19,0.0,0.0,85,0.00,CLR,,0.00,WeatherDisplay:10.37,2013-07-12 10:08:00,
2013-07-12 06:13:00,57.7,53.2,29.98,NNE,19,2.3,2.3,85,0.00,CLR,,0.00,WeatherDisplay:10.37,2013-07-12 10:13:00,
2013-07-12 06:18:00,57.7,53.2,29.98,NNE,19,3.5,3.5,85,0.00,CLR,,0.00,WeatherDisplay:10.37,2013-07-12 10:18:00,
2013-07-12 06:23:00,57.6,53.1,29.97,NNE,19,3.5,3.5,85,0.00,CLR,,0.00,WeatherDisplay:10.37,2013-07-12 10:23:00,
2013-07-12 06:28:00,57.6,53.1,29.97,NNE,19,2.3,0.0,85,0.00,CLR,,0.00,WeatherDisplay:10.37,2013-07-12 10:28:00,
2013-07-12 06:33:00,57.6,53.4,29.98,NNE,19,3.0,3.0,86,0.00,CLR,,0.00,WeatherDisplay:10.37,2013-07-12 10:33:00,
2013-07-12 06:38:00,57.6,53.4,29.98,NNE,19,2.3,0.0,86,0.00,CLR,,0.00,WeatherDisplay:10.37,2013-07-12 10:38:00,
2013-07-12 06:43:00,57.6,53.4,29.98,NNE,19,1.2,0.0,86,0.00,CLR,,0.00,WeatherDisplay:10.37,2013-07-12 10:43:00,
2013-07-12 06:48:00,57.6,53.4,29.98,NNE,19,1.0,1.0,86,0.00,CLR,,0.00,WeatherDisplay:10.37,2013-07-12 10:48:00,
2013-07-12 06:53:00,57.5,53.3,29.99,NNE,19,0.0,0.0,86,0.00,CLR,,0.00,WeatherDisplay:10.37,2013-07-12 10:53:00,
2013-07-12 06:58:00,57.5,53.3,29.99,NNE,19,1.2,1.2,86,0.00,CLR,,0.00,WeatherDisplay:10.37,2013-07-12 10:58:00,
2013-07-12 07:03:00,57.6,53.4,29.99,NNE,19,0.0,0.0,86,0.00,CLR,,0.00,WeatherDisplay:10.37,2013-07-12 11:03:00,
2013-07-12 07:08:00,57.7,53.5,29.99,NNE,19,0.0,0.0,86,0.00,CLR,,0.00,WeatherDisplay:10.37,2013-07-12 11:08:00,
2013-07-12 07:13:00,57.9,53.7,29.99,NNE,19,3.5,3.5,86,0.00,CLR,,0.00,WeatherDisplay:10.37,2013-07-12 11:13:00,
2013-07-12 07:18:00,58.0,53.8,29.99,NNE,19,2.3,0.0,86,0.00,CLR,,0.00,WeatherDisplay:10.37,2013-07-12 11:18:00,
2013-07-12 07:23:00,58.0,53.8,29.99,NNE,19,3.5,3.5,86,0.00,CLR,,0.00,WeatherDisplay:10.37,2013-07-12 11:23:00,
2013-07-12 07:28:00,58.1,53.9,29.99,NNE,22,4.0,4.0,86,0.00,CLR,,0.00,WeatherDisplay:10.37,2013-07-12 11:28:00,
2013-07-12 07:33:00,58.1,53.9,29.99,NNE,22,3.5,3.5,86,0.00,CLR,,0.00,WeatherDisplay:10.37,2013-07-12 11:33:00,
2013-07-12 07:38:00,58.3,54.1,29.99,NNE,22,4.0,4.0,86,0.00,CLR,,0.00,WeatherDisplay:10.37,2013-07-12 11:38:00,
2013-07-12 07:43:00,58.5,54.3,29.99,NNE,22,4.6,4.6,86,0.00,CLR,,0.00,WeatherDisplay:10.37,2013-07-12 11:43:00,
2013-07-12 07:48:00,58.7,54.5,30.00,NNE,22,4.0,4.0,86,0.00,CLR,,0.00,WeatherDisplay:10.37,2013-07-12 11:48:00,
2013-07-12 07:53:00,59.0,54.8,30.00,NNE,22,4.0,4.0,86,0.00,CLR,,0.00,WeatherDisplay:10.37,2013-07-12 11:53:00,
2013-07-12 07:58:00,59.4,55.2,30.00,NNE,22,4.0,4.0,86,0.00,CLR,,0.00,WeatherDisplay:10.37,2013-07-12 11:58:00,
2013-07-12 08:03:00,59.9,55.7,30.00,NE,37,4.6,4.6,86,0.00,CLR,,0.00,WeatherDisplay:10.37,2013-07-12 12:03:00,
2013-07-12 08:08:00,60.3,56.1,30.00,NNE,33,4.0,4.0,86,0.00,CLR,,0.00,WeatherDisplay:10.37,2013-07-12 12:08:00,
2013-07-12 08:13:00,60.8,56.3,30.00,NNE,33,4.0,4.0,85,0.00,CLR,,0.00,WeatherDisplay:10.37,2013-07-12 12:13:00,
2013-07-12 08:18:00,61.2,56.7,30.00,NE,55,4.0,4.0,85,0.00,CLR,,0.00,WeatherDisplay:10.37,2013-07-12 12:18:00,
2013-07-12 08:23:00,61.4,56.8,30.01,NE,50,4.0,4.0,85,0.00,CLR,,0.00,WeatherDisplay:10.37,2013-07-12 12:23:00,
2013-07-12 08:28:00,61.7,57.1,30.01,NE,36,4.0,4.0,85,0.00,CLR,,0.00,WeatherDisplay:10.37,2013-07-12 12:28:00,
2013-07-12 08:33:00,61.9,57.0,30.01,NE,36,3.5,3.5,84,0.00,CLR,,0.00,WeatherDisplay:10.37,2013-07-12 12:33:00,
2013-07-12 08:38:00,61.9,57.0,30.01,NE,36,4.0,4.0,84,0.00,CLR,,0.00,WeatherDisplay:10.37,2013-07-12 12:38:00,
2013-07-12 08:43:00,62.0,57.1,30.01,NE,44,4.0,4.0,84,0.00,CLR,,0.00,WeatherDisplay:10.37,2013-07-12 12:43:00,
2013-07-12 08:48:00,62.2,57.3,30.01,North,355,3.5,3.5,84,0.00,CLR,,0.00,WeatherDisplay:10.37,2013-07-12 12:48:00,
2013-07-12 08:53:00,62.4,57.2,30.02,NE,38,4.0,4.0,83,0.00,CLR,,0.00,WeatherDisplay:10.37,2013-07-12 12:53:00,
2013-07-12 08:58:00,62.6,57.4,30.02,NNE,24,5.0,5.0,83,0.00,CLR,,0.00,WeatherDisplay:10.37,2013-07-12 12:58:00,
2013-07-12 09:03:00,62.7,57.1,30.02,NE,44,5.0,5.0,82,0.00,CLR,,0.00,WeatherDisplay:10.37,2013-07-12 13:03:00,
2013-07-12 09:08:00,62.9,57.3,30.02,NNE,33,3.5,3.5,82,0.00,CLR,,0.00,WeatherDisplay:10.37,2013-07-12 13:08:00,
2013-07-12 09:13:00,63.1,57.5,30.02,NNE,18,3.5,3.5,82,0.00,CLR,,0.00,WeatherDisplay:10.37,2013-07-12 13:13:00,
2013-07-12 09:18:00,63.4,57.8,30.02,NNE,17,3.5,3.5,82,0.00,CLR,,0.00,WeatherDisplay:10.37,2013-07-12 13:18:00,
2013-07-12 09:23:00,63.6,58.0,30.02,NE,42,4.0,4.0,82,0.00,CLR,,0.00,WeatherDisplay:10.37,2013-07-12 13:23:00,
2013-07-12 09:28:00,63.8,58.2,30.02,NNE,25,5.0,5.0,82,0.00,CLR,,0.00,WeatherDisplay:10.37,2013-07-12 13:28:00,
2013-07-12 09:33:00,64.1,58.1,30.02,NNE,21,4.0,4.0,81,0.00,CLR,,0.00,WeatherDisplay:10.37,2013-07-12 13:33:00,
2013-07-12 09:38:00,64.3,58.7,30.02,NNE,21,4.0,4.0,82,0.00,CLR,,0.00,WeatherDisplay:10.37,2013-07-12 13:38:00,
2013-07-12 09:43:00,64.6,58.6,30.02,NNE,27,3.5,3.5,81,0.00,CLR,,0.00,WeatherDisplay:10.37,2013-07-12 13:43:00,
2013-07-12 09:48:00,64.7,58.7,30.02,NNE,24,4.0,4.0,81,0.00,CLR,,0.00,WeatherDisplay:10.37,2013-07-12 13:48:00,
2013-07-12 09:53:00,64.7,58.7,30.02,NNE,24,4.0,4.0,81,0.00,CLR,,0.00,WeatherDisplay:10.37,2013-07-12 13:53:00,
2013-07-12 09:58:00,64.8,58.8,30.02,NNE,28,4.0,4.0,81,0.00,CLR,,0.00,WeatherDisplay:10.37,2013-07-12 13:58:00,
2013-07-12 10:03:00,65.1,59.1,30.02,NNE,28,3.5,3.5,81,0.00,CLR,,0.00,WeatherDisplay:10.37,2013-07-12 14:03:00,
2013-07-12 10:08:00,65.3,59.0,30.02,NNE,28,2.3,2.3,80,0.00,CLR,,0.00,WeatherDisplay:10.37,2013-07-12 14:08:00,
2013-07-12 10:13:00,65.7,59.7,30.02,NNE,28,3.5,3.5,81,0.00,CLR,,0.00,WeatherDisplay:10.37,2013-07-12 14:13:00,
2013-07-12 10:18:00,65.9,59.6,30.02,NNE,28,3.5,3.5,80,0.00,CLR,,0.00,WeatherDisplay:10.37,2013-07-12 14:18:00,
2013-07-12 10:23:00,66.2,59.1,30.02,NE,40,3.5,3.5,78,0.00,CLR,,0.00,WeatherDisplay:10.37,2013-07-12 14:23:00,
2013-07-12 10:28:00,66.2,59.5,30.02,North,11,1.2,1.2,79,0.00,CLR,,0.00,WeatherDisplay:10.37,2013-07-12 14:28:00,
2013-07-12 10:33:00,66.3,59.2,30.02,NNE,26,5.0,5.0,78,0.00,CLR,,0.00,WeatherDisplay:10.37,2013-07-12 14:33:00,
2013-07-12 10:38:00,66.3,59.2,30.02,NNE,31,4.0,4.0,78,0.00,CLR,,0.00,WeatherDisplay:10.37,2013-07-12 14:38:00,
2013-07-12 10:43:00,66.3,58.9,30.03,NNE,17,1.2,1.2,77,0.00,CLR,,0.00,WeatherDisplay:10.37,2013-07-12 14:43:00,
2013-07-12 10:48:00,66.3,59.6,30.03,NNE,17,1.2,0.0,79,0.00,CLR,,0.00,WeatherDisplay:10.37,2013-07-12 14:48:00,
2013-07-12 10:53:00,66.4,59.7,30.03,NNE,32,1.2,0.0,79,0.00,CLR,,0.00,WeatherDisplay:10.37,2013-07-12 14:53:00,
2013-07-12 10:58:00,66.8,60.4,30.02,NNW,347,3.5,3.5,80,0.00,CLR,,0.00,WeatherDisplay:10.37,2013-07-12 14:58:00,
2013-07-12 11:03:00,67.1,60.7,30.02,NNE,30,3.0,3.0,80,0.00,CLR,,0.00,WeatherDisplay:10.37,2013-07-12 15:03:00,
2013-07-12 11:08:00,69.1,62.7,30.02,NE,36,3.5,3.5,80,0.00,CLR,,0.00,WeatherDisplay:10.37,2013-07-12 15:08:00,
2013-07-12 11:13:00,69.7,61.8,30.02,NNE,30,4.0,4.0,76,0.00,CLR,,0.00,WeatherDisplay:10.37,2013-07-12 15:13:00,
2013-07-12 11:18:00,69.8,61.9,30.02,NW,321,3.5,3.5,76,0.00,CLR,,0.00,WeatherDisplay:10.37,2013-07-12 15:18:00,
2013-07-12 11:23:00,70.2,62.6,30.02,North,5,5.0,5.0,77,0.00,CLR,,0.00,WeatherDisplay:10.37,2013-07-12 15:23:00,
2013-07-12 11:28:00,70.2,62.3,30.02,NNE,30,1.2,0.0,76,0.00,CLR,,0.00,WeatherDisplay:10.37,2013-07-12 15:28:00,
2013-07-12 11:33:00,70.7,63.1,30.02,NNE,30,3.5,3.5,77,0.00,CLR,,0.00,WeatherDisplay:10.37,2013-07-12 15:33:00,
2013-07-12 11:38:00,71.5,63.5,30.02,NE,41,4.0,4.0,76,0.00,CLR,,0.00,WeatherDisplay:10.37,2013-07-12 15:38:00,
2013-07-12 11:43:00,71.7,63.7,30.02,NE,53,1.2,0.0,76,0.00,CLR,,0.00,WeatherDisplay:10.37,2013-07-12 15:43:00,
2013-07-12 11:48:00,71.9,63.5,30.02,NNE,28,3.5,3.5,75,0.00,CLR,,0.00,WeatherDisplay:10.37,2013-07-12 15:48:00,
2013-07-12 11:53:00,71.7,63.0,30.03,NNE,29,4.0,4.0,74,0.00,CLR,,0.00,WeatherDisplay:10.37,2013-07-12 15:53:00,
2013-07-12 11:58:00,71.9,63.2,30.03,SE,130,2.0,2.0,74,0.00,CLR,,0.00,WeatherDisplay:10.37,2013-07-12 15:58:00,
2013-07-12 12:03:00,71.9,62.0,30.03,NNE,22,4.0,4.0,71,0.00,CLR,,0.00,WeatherDisplay:10.37,2013-07-12 16:03:00,
2013-07-12 12:08:00,72.3,63.9,30.03,NNE,32,3.5,3.5,75,0.00,CLR,,0.00,WeatherDisplay:10.37,2013-07-12 16:08:00,
2013-07-12 12:13:00,72.1,63.0,30.03,North,11,3.0,3.0,73,0.00,CLR,,0.00,WeatherDisplay:10.37,2013-07-12 16:13:00,
2013-07-12 12:18:00,71.7,62.6,30.03,NNE,15,4.0,4.0,73,0.00,CLR,,0.00,WeatherDisplay:10.37,2013-07-12 16:18:00,
2013-07-12 12:23:00,71.2,62.5,30.03,NNE,30,3.5,3.5,74,0.00,CLR,,0.00,WeatherDisplay:10.37,2013-07-12 16:23:00,
2013-07-12 12:28:00,70.8,61.7,30.03,NNE,28,6.0,6.0,73,0.00,CLR,,0.00,WeatherDisplay:10.37,2013-07-12 16:28:00,
2013-07-12 12:33:00,70.4,61.7,30.03,NE,34,1.2,1.2,74,0.00,CLR,,0.00,WeatherDisplay:10.37,2013-07-12 16:33:00,
2013-07-12 12:38:00,70.4,62.1,30.02,NNE,33,4.0,4.0,75,0.00,CLR,,0.00,WeatherDisplay:10.37,2013-07-12 16:38:00,
2013-07-12 12:43:00,70.4,62.5,30.02,NNE,29,2.3,0.0,76,0.00,CLR,,0.00,WeatherDisplay:10.37,2013-07-12 16:43:00,
2013-07-12 12:48:00,70.9,63.3,30.02,NNE,17,3.5,3.5,77,0.00,CLR,,0.00,WeatherDisplay:10.37,2013-07-12 16:48:00,
2013-07-12 12:50:00,65.9,61.6,30.06,NNW,336,0.0,0.0,86,0.00,RA,RA,0.02,WeatherDisplay:10.37,2013-07-12 16:50:00,
2013-07-12 12:53:00,71.3,63.7,30.02,NNE,17,4.0,4.0,77,0.00,CLR,,0.00,WeatherDisplay:10.37,2013-07-12 16:53:00,
2013-07-12 12:55:00,65.9,61.6,30.06,NNW,338,0.0,0.0,86,0.00,CLR,CLR,0.02,WeatherDisplay:10.37,2013-07-12 16:55:00,
2013-07-12 12:58:00,71.9,64.3,30.02,NE,34,5.0,5.0,77,0.00,CLR,,0.00,WeatherDisplay:10.37,2013-07-12 16:58:00,
2013-07-12 13:00:00,66.0,61.7,30.07,NNW,338,0.0,0.0,86,0.00,CLR,CLR,0.02,WeatherDisplay:10.37,2013-07-12 17:00:00,
2013-07-12 13:03:00,72.4,63.3,30.02,NNE,30,4.0,4.0,73,0.00,CLR,,0.00,WeatherDisplay:10.37,2013-07-12 17:03:00,
2013-07-12 13:05:00,65.9,61.6,30.06,NNW,338,2.0,3.0,86,0.00,CLR,CLR,0.02,WeatherDisplay:10.37,2013-07-12 17:05:00,
2013-07-12 13:08:00,72.3,63.9,30.02,NE,35,5.0,5.0,75,0.00,CLR,,0.00,WeatherDisplay:10.37,2013-07-12 17:08:00,
2013-07-12 13:10:00,65.8,61.8,30.07,North,349,0.0,3.0,87,0.00,CLR,CLR,0.02,WeatherDisplay:10.37,2013-07-12 17:10:00,
2013-07-12 13:14:00,71.8,62.7,30.02,NNE,28,5.0,5.0,73,0.00,CLR,,0.00,WeatherDisplay:10.37,2013-07-12 17:14:00,
2013-07-12 13:15:00,65.7,61.7,30.06,North,0,0.0,3.0,87,0.00,CLR,CLR,0.02,WeatherDisplay:10.37,2013-07-12 17:15:00,
2013-07-12 13:19:00,72.1,63.7,30.02,NE,42,3.5,3.5,75,0.00,CLR,,0.00,WeatherDisplay:10.37,2013-07-12 17:19:00,
2013-07-12 13:20:00,65.7,61.7,30.06,North,0,0.0,3.0,87,0.00,CLR,CLR,0.02,WeatherDisplay:10.37,2013-07-12 17:20:00,
2013-07-12 13:24:00,71.9,63.2,30.01,NE,46,4.6,4.6,74,0.00,CLR,,0.00,WeatherDisplay:10.37,2013-07-12 17:24:00,
2013-07-12 13:25:00,65.6,61.6,30.07,North,0,0.0,0.0,87,0.00,CLR,CLR,0.02,WeatherDisplay:10.37,2013-07-12 17:25:00,
2013-07-12 13:30:00,72.4,63.6,30.02,NNE,32,5.0,5.0,74,0.00,CLR,,0.00,WeatherDisplay:10.37,2013-07-12 17:30:00,
2013-07-12 13:35:00,72.2,62.3,30.02,NNE,26,5.0,5.0,71,0.00,CLR,,0.00,WeatherDisplay:10.37,2013-07-12 17:35:00,
2013-07-12 13:40:00,72.3,63.1,30.02,NNE,26,2.0,4.0,73,0.00,CLR,CLR,0.00,WeatherDisplay:10.37,2013-07-12 17:40:00,
2013-07-12 13:45:00,72.0,62.9,30.02,NE,42,4.0,4.0,73,0.00,CLR,,0.00,WeatherDisplay:10.37,2013-07-12 17:45:00,
2013-07-12 13:50:00,71.6,62.1,30.02,NE,56,3.5,3.5,72,0.00,CLR,,0.00,WeatherDisplay:10.37,2013-07-12 17:50:00,
2013-07-12 13:55:00,71.5,62.0,30.02,North,9,4.6,4.6,72,0.00,CLR,,0.00,WeatherDisplay:10.37,2013-07-12 17:55:00,
2013-07-12 14:00:00,71.6,62.1,30.02,NNE,32,3.5,3.5,72,0.00,CLR,,0.00,WeatherDisplay:10.37,2013-07-12 18:00:00,
2013-07-12 14:05:00,72.8,63.2,30.02,NE,37,5.0,5.0,72,0.00,CLR,,0.00,WeatherDisplay:10.37,2013-07-12 18:05:00,
2013-07-12 14:10:00,73.1,63.5,30.02,NNE,33,2.3,2.3,72,0.00,CLR,,0.00,WeatherDisplay:10.37,2013-07-12 18:10:00,
2013-07-12 14:15:00,72.5,63.0,30.02,NE,52,3.5,3.5,72,0.00,CLR,,0.00,WeatherDisplay:10.37,2013-07-12 18:15:00,
2013-07-12 14:20:00,65.5,61.5,30.07,North,0,0.0,3.0,87,0.00,CLR,CLR,0.00,WeatherDisplay:10.37,2013-07-12 18:20:00,
2013-07-12 14:21:00,72.1,63.0,30.02,North,11,4.0,4.0,73,0.00,CLR,,0.00,WeatherDisplay:10.37,2013-07-12 18:21:00,
2013-07-12 14:25:00,65.4,61.4,30.07,North,0,0.0,0.0,87,0.00,CLR,CLR,0.00,WeatherDisplay:10.37,2013-07-12 18:25:00,
2013-07-12 14:27:00,72.4,62.9,30.02,NE,48,1.2,1.2,72,0.00,CLR,,0.00,WeatherDisplay:10.37,2013-07-12 18:27:00,
2013-07-12 14:30:00,65.5,61.5,30.07,North,0,0.0,2.0,87,0.00,CLR,CLR,0.00,WeatherDisplay:10.37,2013-07-12 18:30:00,
2013-07-12 14:32:00,72.1,63.0,30.02,NE,45,2.3,2.3,73,0.00,CLR,,0.00,WeatherDisplay:10.37,2013-07-12 18:32:00,
2013-07-12 14:35:00,65.6,61.6,30.07,North,0,0.0,1.0,87,0.00,CLR,CLR,0.00,WeatherDisplay:10.37,2013-07-12 18:35:00,
2013-07-12 14:37:00,71.8,62.7,30.02,NNE,19,0.0,0.0,73,0.00,CLR,,0.00,WeatherDisplay:10.37,2013-07-12 18:37:00,
2013-07-12 14:40:00,65.7,61.4,30.07,North,0,0.0,2.0,86,0.00,CLR,CLR,0.00,WeatherDisplay:10.37,2013-07-12 18:40:00,
2013-07-12 14:42:00,71.5,62.4,30.02,NNE,19,1.2,1.2,73,0.00,CLR,,0.00,WeatherDisplay:10.37,2013-07-12 18:42:00,
2013-07-12 14:45:00,65.7,61.4,30.07,North,0,0.0,1.0,86,0.00,CLR,CLR,0.00,WeatherDisplay:10.37,2013-07-12 18:45:00,
2013-07-12 14:47:00,71.5,62.0,30.02,NNE,19,0.0,0.0,72,0.00,CLR,,0.00,WeatherDisplay:10.37,2013-07-12 18:47:00,
2013-07-12 14:50:00,65.5,61.2,30.07,North,0,0.0,3.0,86,0.00,CLR,CLR,0.00,WeatherDisplay:10.37,2013-07-12 18:50:00,
2013-07-12 14:52:00,71.4,62.3,30.02,North,355,0.0,0.0,73,0.00,CLR,,0.00,WeatherDisplay:10.37,2013-07-12 18:52:00,
2013-07-12 14:58:00,71.3,62.2,30.02,NE,55,2.3,2.3,73,0.00,CLR,,0.00,WeatherDisplay:10.37,2013-07-12 18:58:00,
2013-07-12 15:03:00,71.2,61.7,30.02,NE,53,1.2,0.0,72,0.00,CLR,,0.00,WeatherDisplay:10.37,2013-07-12 19:03:00,
2013-07-12 15:08:00,71.1,62.0,30.02,NE,55,0.0,0.0,73,0.00,CLR,,0.00,WeatherDisplay:10.37,2013-07-12 19:08:00,
2013-07-12 15:13:00,71.3,62.2,30.02,ENE,64,0.0,0.0,73,0.00,CLR,,0.00,WeatherDisplay:10.37,2013-07-12 19:13:00,
2013-07-12 15:19:00,71.4,62.7,30.02,SSE,161,0.0,0.0,74,0.00,CLR,,0.00,WeatherDisplay:10.37,2013-07-12 19:19:00,
2013-07-12 15:25:00,71.3,63.0,30.02,SSE,162,0.0,1.0,75,0.00,CLR,CLR,0.00,WeatherDisplay:10.37,2013-07-12 19:25:00,
2013-07-12 15:30:00,70.9,62.6,30.02,SSE,162,0.0,0.0,75,0.00,CLR,CLR,0.00,WeatherDisplay:10.37,2013-07-12 19:30:00,
2013-07-12 15:35:00,70.7,62.7,30.02,SSE,162,0.0,0.0,76,0.00,CLR,CLR,0.00,WeatherDisplay:10.37,2013-07-12 19:35:00,
2013-07-12 15:40:00,70.6,62.7,30.02,SSE,161,0.0,0.0,76,0.00,CLR,,0.00,WeatherDisplay:10.37,2013-07-12 19:40:00,
2013-07-12 15:45:00,70.4,63.2,30.02,SSE,162,0.0,0.0,78,0.00,CLR,,0.00,WeatherDisplay:10.37,2013-07-12 19:45:00,
2013-07-12 15:50:00,70.1,62.9,30.02,SSE,162,0.0,0.0,78,0.00,CLR,CLR,0.00,WeatherDisplay:10.37,2013-07-12 19:50:00,
2013-07-12 15:55:00,69.9,62.7,30.03,SSE,162,0.0,0.0,78,0.00,CLR,CLR,0.00,WeatherDisplay:10.37,2013-07-12 19:55:00,
2013-07-12 16:00:00,69.5,62.7,30.03,SSE,162,0.0,0.0,79,0.00,CLR,CLR,0.00,WeatherDisplay:10.37,2013-07-12 20:00:00,
2013-07-12 16:05:00,69.0,62.6,30.03,SSE,161,0.0,0.0,80,0.00,CLR,CLR,0.00,WeatherDisplay:10.37,2013-07-12 20:05:00,
2013-07-12 16:10:00,68.8,62.8,30.03,SSE,162,0.0,0.0,81,0.00,CLR,CLR,0.00,WeatherDisplay:10.37,2013-07-12 20:10:00,
2013-07-12 16:15:00,68.6,62.6,30.03,SSE,162,0.0,0.0,81,0.00,CLR,CLR,0.00,WeatherDisplay:10.37,2013-07-12 20:15:00,
2013-07-12 16:20:00,68.4,62.3,30.03,SSE,162,0.0,0.0,81,0.00,CLR,CLR,0.00,WeatherDisplay:10.37,2013-07-12 20:20:00,
2013-07-12 16:25:00,68.1,62.0,30.03,SSE,162,0.0,0.0,81,0.00,CLR,,0.00,WeatherDisplay:10.37,2013-07-12 20:25:00,
2013-07-12 16:30:00,67.9,61.9,30.03,SSE,162,0.0,1.0,81,0.00,RA,RA,0.01,WeatherDisplay:10.37,2013-07-12 20:30:00,
2013-07-12 16:35:00,67.9,61.5,30.03,South,176,0.0,1.0,80,0.00,RA,RA,0.01,WeatherDisplay:10.37,2013-07-12 20:35:00,
2013-07-12 16:40:00,68.1,61.7,30.03,South,190,0.0,0.0,80,0.01,CLR,,0.01,WeatherDisplay:10.37,2013-07-12 20:40:00,
2013-07-12 16:45:00,68.0,61.2,30.02,South,190,0.0,0.0,79,0.00,CLR,CLR,0.01,WeatherDisplay:10.37,2013-07-12 20:45:00,
2013-07-12 16:50:00,67.9,60.4,30.02,South,190,0.0,0.0,77,0.00,CLR,CLR,0.01,WeatherDisplay:10.37,2013-07-12 20:50:00,
2013-07-12 16:55:00,68.1,61.0,30.03,South,190,0.0,0.0,78,0.00,CLR,CLR,0.01,WeatherDisplay:10.37,2013-07-12 20:55:00,
2013-07-12 17:00:00,68.3,61.5,30.03,South,190,2.3,2.3,79,0.01,CLR,,0.01,WeatherDisplay:10.37,2013-07-12 21:00:00,
2013-07-12 17:05:00,68.5,62.1,30.03,South,190,0.0,0.0,80,0.02,RA,,0.02,WeatherDisplay:10.37,2013-07-12 21:05:00,
2013-07-12 17:10:00,68.4,62.3,30.03,South,190,0.0,0.0,81,0.00,RA,RA,0.02,WeatherDisplay:10.37,2013-07-12 21:10:00,
2013-07-12 17:15:00,67.9,61.8,30.03,South,190,0.0,1.0,81,0.00,CLR,CLR,0.02,WeatherDisplay:10.37,2013-07-12 21:15:00,
2013-07-12 17:20:00,67.7,61.3,30.03,South,184,0.0,1.0,80,0.00,CLR,CLR,0.02,WeatherDisplay:10.37,2013-07-12 21:20:00,
2013-07-12 17:25:00,67.6,60.5,30.03,South,176,0.0,0.0,78,0.00,CLR,CLR,0.02,WeatherDisplay:10.37,2013-07-12 21:25:00,
2013-07-12 17:30:00,67.5,60.8,30.03,South,171,0.0,0.0,79,0.00,CLR,CLR,0.02,WeatherDisplay:10.37,2013-07-12 21:30:00,
2013-07-12 17:35:00,67.7,62.0,30.02,South,171,0.0,0.0,82,0.01,CLR,,0.02,WeatherDisplay:10.37,2013-07-12 21:35:00,
2013-07-12 17:40:00,67.9,62.5,30.02,South,171,0.0,0.0,83,0.00,CLR,CLR,0.02,WeatherDisplay:10.37,2013-07-12 21:40:00,
2013-07-12 17:45:00,67.6,62.6,30.02,South,171,0.0,0.0,84,0.00,CLR,CLR,0.02,WeatherDisplay:10.37,2013-07-12 21:45:00,
2013-07-12 17:50:00,67.4,62.1,30.03,South,171,0.0,0.0,83,0.00,CLR,CLR,0.02,WeatherDisplay:10.37,2013-07-12 21:50:00,
2013-07-12 17:55:00,67.5,62.2,30.03,South,171,0.0,0.0,83,0.01,CLR,,0.02,WeatherDisplay:10.37,2013-07-12 21:55:00,
2013-07-12 18:00:00,67.4,62.1,30.03,South,171,0.0,0.0,83,0.00,CLR,CLR,0.02,WeatherDisplay:10.37,2013-07-12 22:00:00,
2013-07-12 18:05:00,67.6,62.6,30.03,South,172,0.0,1.0,84,0.00,CLR,CLR,0.02,WeatherDisplay:10.37,2013-07-12 22:05:00,
2013-07-12 18:10:00,67.9,62.9,30.03,South,179,0.0,2.0,84,0.00,CLR,CLR,0.02,WeatherDisplay:10.37,2013-07-12 22:10:00,
2013-07-12 18:15:00,67.9,62.9,30.03,WSW,239,2.0,3.0,84,0.00,CLR,CLR,0.02,WeatherDisplay:10.37,2013-07-12 22:15:00,
2013-07-12 18:20:00,67.9,62.9,30.03,SW,222,2.3,2.3,84,0.00,CLR,,0.02,WeatherDisplay:10.37,2013-07-12 22:20:00,
2013-07-12 18:25:00,67.9,62.5,30.03,SW,223,0.0,0.0,83,0.00,CLR,,0.02,WeatherDisplay:10.37,2013-07-12 22:25:00,
2013-07-12 18:30:00,68.0,62.7,30.02,SW,223,0.0,1.0,83,0.00,CLR,CLR,0.02,WeatherDisplay:10.37,2013-07-12 22:30:00,
2013-07-12 18:35:00,67.7,62.0,30.03,SW,223,0.0,0.0,82,0.00,CLR,CLR,0.02,WeatherDisplay:10.37,2013-07-12 22:35:00,
2013-07-12 18:40:00,67.7,62.0,30.03,SW,223,0.0,0.0,82,0.00,CLR,CLR,0.02,WeatherDisplay:10.37,2013-07-12 22:40:00,
2013-07-12 18:45:00,67.8,62.4,30.02,SW,223,0.0,0.0,83,0.00,CLR,,0.02,WeatherDisplay:10.37,2013-07-12 22:45:00,
2013-07-12 18:50:00,67.6,62.3,30.02,SW,223,0.0,0.0,83,0.00,CLR,,0.02,WeatherDisplay:10.37,2013-07-12 22:50:00,
2013-07-12 18:56:00,67.6,62.3,30.02,SW,223,0.0,0.0,83,0.00,CLR,,0.02,WeatherDisplay:10.37,2013-07-12 22:56:00,
2013-07-12 19:01:00,67.6,62.3,30.02,SW,223,0.0,0.0,83,0.00,CLR,,0.02,WeatherDisplay:10.37,2013-07-12 23:01:00,
2013-07-12 19:06:00,67.6,62.3,30.02,SW,223,0.0,0.0,83,0.00,CLR,,0.02,WeatherDisplay:10.37,2013-07-12 23:06:00,
2013-07-12 19:11:00,67.5,62.2,30.02,SW,223,0.0,0.0,83,0.00,CLR,,0.02,WeatherDisplay:10.37,2013-07-12 23:11:00,
2013-07-12 19:16:00,67.3,62.0,30.02,SW,223,0.0,0.0,83,0.00,CLR,,0.02,WeatherDisplay:10.37,2013-07-12 23:16:00,
2013-07-12 19:22:00,67.3,62.3,30.02,SW,227,0.0,0.0,84,0.00,CLR,,0.02,WeatherDisplay:10.37,2013-07-12 23:22:00,
2013-07-12 19:27:00,67.2,61.9,30.03,SW,226,0.0,0.0,83,0.00,CLR,,0.02,WeatherDisplay:10.37,2013-07-12 23:27:00,
2013-07-12 19:32:00,67.1,61.8,30.03,SW,226,0.0,0.0,83,0.00,CLR,,0.02,WeatherDisplay:10.37,2013-07-12 23:32:00,
2013-07-12 19:37:00,67.2,62.2,30.03,SW,226,0.0,0.0,84,0.00,CLR,,0.02,WeatherDisplay:10.37,2013-07-12 23:37:00,
2013-07-12 19:42:00,67.4,62.4,30.03,NNW,333,0.0,0.0,84,0.00,CLR,,0.02,WeatherDisplay:10.37,2013-07-12 23:42:00,
2013-07-12 19:47:00,67.3,62.3,30.03,NNW,333,0.0,0.0,84,0.00,CLR,,0.02,WeatherDisplay:10.37,2013-07-12 23:47:00,
2013-07-12 19:52:00,67.3,62.3,30.03,NNW,333,0.0,0.0,84,0.00,CLR,,0.02,WeatherDisplay:10.37,2013-07-12 23:52:00,
2013-07-12 19:57:00,67.4,62.4,30.03,NNW,333,0.0,0.0,84,0.00,CLR,,0.02,WeatherDisplay:10.37,2013-07-12 23:57:00,
2013-07-12 20:02:00,67.2,62.2,30.03,NNW,333,0.0,0.0,84,0.00,CLR,,0.02,WeatherDisplay:10.37,2013-07-13 00:02:00,
2013-07-12 20:07:00,67.2,62.2,30.03,NNW,333,0.0,0.0,84,0.00,CLR,,0.02,WeatherDisplay:10.37,2013-07-13 00:07:00,
2013-07-12 20:12:00,67.2,62.2,30.03,NNW,333,0.0,0.0,84,0.00,CLR,,0.02,WeatherDisplay:10.37,2013-07-13 00:12:00,
2013-07-12 20:18:00,67.1,62.1,30.04,NNW,333,0.0,0.0,84,0.00,CLR,,0.02,WeatherDisplay:10.37,2013-07-13 00:18:00,
2013-07-12 20:24:00,67.1,62.1,30.04,NNW,333,0.0,0.0,84,0.00,CLR,,0.02,WeatherDisplay:10.37,2013-07-13 00:24:00,
2013-07-12 20:29:00,67.0,62.0,30.04,NNW,333,0.0,0.0,84,0.00,CLR,,0.02,WeatherDisplay:10.37,2013-07-13 00:29:00,
2013-07-12 20:34:00,67.0,62.0,30.04,NNW,333,0.0,0.0,84,0.00,CLR,,0.02,WeatherDisplay:10.37,2013-07-13 00:34:00,
2013-07-12 20:39:00,67.0,62.0,30.04,NNW,333,0.0,0.0,84,0.00,CLR,,0.02,WeatherDisplay:10.37,2013-07-13 00:39:00,
2013-07-12 20:45:00,66.9,61.9,30.05,NNW,333,0.0,0.0,84,0.00,CLR,CLR,0.02,WeatherDisplay:10.37,2013-07-13 00:45:00,
2013-07-12 20:50:00,66.9,61.9,30.05,NNW,333,0.0,0.0,84,0.00,CLR,,0.02,WeatherDisplay:10.37,2013-07-13 00:50:00,
2013-07-12 20:55:00,66.9,61.9,30.05,NNW,333,0.0,0.0,84,0.00,CLR,CLR,0.02,WeatherDisplay:10.37,2013-07-13 00:55:00,
2013-07-12 21:00:00,66.8,61.8,30.04,NNW,333,0.0,0.0,84,0.00,CLR,CLR,0.02,WeatherDisplay:10.37,2013-07-13 01:00:00,
2013-07-12 21:05:00,66.7,61.7,30.04,NNW,333,0.0,0.0,84,0.00,CLR,CLR,0.02,WeatherDisplay:10.37,2013-07-13 01:05:00,
2013-07-12 21:10:00,66.7,61.7,30.05,NNW,333,0.0,0.0,84,0.00,CLR,CLR,0.02,WeatherDisplay:10.37,2013-07-13 01:10:00,
2013-07-12 21:15:00,66.6,61.6,30.04,NNW,333,0.0,0.0,84,0.00,CLR,CLR,0.02,WeatherDisplay:10.37,2013-07-13 01:15:00,
2013-07-12 21:20:00,66.6,61.6,30.04,NNW,333,0.0,0.0,84,0.00,CLR,CLR,0.02,WeatherDisplay:10.37,2013-07-13 01:20:00,
2013-07-12 21:25:00,66.4,61.8,30.04,NNW,333,0.0,0.0,85,0.00,CLR,,0.02,WeatherDisplay:10.37,2013-07-13 01:25:00,
2013-07-12 21:30:00,66.3,61.7,30.05,NNW,333,0.0,0.0,85,0.00,CLR,,0.02,WeatherDisplay:10.37,2013-07-13 01:30:00,
2013-07-12 21:35:00,66.3,61.7,30.05,NNW,333,0.0,0.0,85,0.00,CLR,,0.02,WeatherDisplay:10.37,2013-07-13 01:35:00,
2013-07-12 21:40:00,66.4,61.8,30.05,NNW,333,0.0,0.0,85,0.00,CLR,,0.02,WeatherDisplay:10.37,2013-07-13 01:40:00,
2013-07-12 21:45:00,66.3,61.7,30.05,NNW,333,0.0,0.0,85,0.00,CLR,,0.02,WeatherDisplay:10.37,2013-07-13 01:45:00,
2013-07-12 21:50:00,66.3,61.7,30.05,NNW,333,0.0,0.0,85,0.00,CLR,,0.02,WeatherDisplay:10.37,2013-07-13 01:50:00,
2013-07-12 21:55:00,66.2,61.6,30.05,NNW,333,0.0,0.0,85,0.00,CLR,,0.02,WeatherDisplay:10.37,2013-07-13 01:55:00,
2013-07-12 22:00:00,66.0,61.4,30.05,NNW,333,0.0,0.0,85,0.00,CLR,,0.02,WeatherDisplay:10.37,2013-07-13 02:00:00,
2013-07-12 22:05:00,66.0,61.4,30.06,NNW,333,0.0,0.0,85,0.00,CLR,,0.02,WeatherDisplay:10.37,2013-07-13 02:05:00,
2013-07-12 22:10:00,66.0,61.4,30.05,NNW,333,0.0,0.0,85,0.00,CLR,,0.02,WeatherDisplay:10.37,2013-07-13 02:10:00,
2013-07-12 22:15:00,66.0,61.7,30.05,NNW,333,0.0,0.0,86,0.00,CLR,,0.02,WeatherDisplay:10.37,2013-07-13 02:15:00,
2013-07-12 22:20:00,66.0,61.7,30.06,NNW,333,0.0,0.0,86,0.00,CLR,,0.02,WeatherDisplay:10.37,2013-07-13 02:20:00,
2013-07-12 22:25:00,65.9,61.6,30.06,NNW,333,0.0,0.0,86,0.00,CLR,,0.02,WeatherDisplay:10.37,2013-07-13 02:25:00,
2013-07-12 22:30:00,65.8,61.5,30.06,NNW,333,0.0,0.0,86,0.00,CLR,,0.02,WeatherDisplay:10.37,2013-07-13 02:30:00,
2013-07-12 22:36:00,65.8,61.5,30.06,NNW,333,0.0,0.0,86,0.00,CLR,,0.02,WeatherDisplay:10.37,2013-07-13 02:36:00,
2013-07-12 22:41:00,65.8,61.5,30.06,NNW,333,0.0,0.0,86,0.00,CLR,,0.02,WeatherDisplay:10.37,2013-07-13 02:41:00,